Total_Precipitation_Accumulation
0.72 0.74 0.74 0.70 0.72 0.77 0.84 0.96 1.07 0.94 0.67 0.52 0.50 0.50 0.53 0.53 0.53 0.49 0.41 0.43 0.42 0.40 0.40 0.40 0.41 0.44 0.47 0.52 0.62 0.73 0.85 0.97 1.12 1.27 1.41 1.52 1.63 1.73
0.64 0.65 0.65 0.64 0.68 0.75 0.83 0.90 1.02 1.10 0.91 0.61 0.52 0.48 0.48 0.45 0.45 0.40 0.33 0.38 0.36 0.34 0.34 0.35 0.36 0.38 0.40 0.43 0.49 0.56 0.64 0.73 0.85 1.01 1.21 1.37 1.50 1.63
0.61 0.64 0.65 0.66 0.68 0.70 0.74 0.79 0.86 0.94 0.92 0.65 0.52 0.49 0.45 0.40 0.36 0.32 0.28 0.27 0.25 0.29 0.30 0.32 0.34 0.37 0.39 0.42 0.45 0.49 0.54 0.61 0.70 0.82 0.97 1.13 1.25 1.33
0.53 0.57 0.60 0.62 0.65 0.65 0.66 0.66 0.66 0.68 0.75 0.65 0.47 0.42 0.38 0.36 0.37 0.34 0.29 0.25 0.22 0.25 0.28 0.30 0.33 0.35 0.37 0.39 0.44 0.49 0.53 0.56 0.59 0.64 0.72 0.84 0.97 1.09
0.42 0.45 0.49 0.53 0.53 0.50 0.49 0.49 0.50 0.54 0.60 0.61 0.48 0.40 0.35 0.33 0.33 0.31 0.27 0.24 0.21 0.24 0.29 0.31 0.33 0.35 0.38 0.42 0.46 0.49 0.52 0.54 0.57 0.59 0.62 0.69 0.80 0.93
0.34 0.36 0.37 0.37 0.37 0.36 0.37 0.39 0.44 0.50 0.52 0.56 0.52 0.42 0.37 0.32 0.33 0.28 0.24 0.22 0.23 0.23 0.29 0.33 0.36 0.39 0.41 0.43 0.46 0.49 0.51 0.54 0.60 0.65 0.70 0.75 0.80 0.86
0.32 0.30 0.28 0.29 0.28 0.29 0.32 0.36 0.43 0.50 0.57 0.63 0.59 0.51 0.43 0.36 0.31 0.30 0.35 0.35 0.33 0.29 0.30 0.32 0.36 0.41 0.44 0.46 0.49 0.49 0.51 0.56 0.64 0.73 0.81 0.85 0.88 0.91
0.31 0.28 0.27 0.28 0.25 0.27 0.31 0.38 0.50 0.62 0.72 0.75 0.72 0.61 0.46 0.39 0.39 0.45 0.53 0.61 0.54 0.33 0.35 0.38 0.39 0.46 0.46 0.48 0.55 0.57 0.58 0.61 0.64 0.70 0.75 0.78 0.81 0.86
0.26 0.23 0.21 0.20 0.21 0.19 0.23 0.34 0.43 0.52 0.58 0.59 0.57 0.45 0.40 0.39 0.52 0.68 0.71 0.75 0.61 0.39 0.45 0.51 0.42 0.44 0.46 0.50 0.60 0.59 0.56 0.56 0.58 0.61 0.63 0.63 0.63 0.67
0.21 0.19 0.18 0.17 0.16 0.20 0.27 0.35 0.30 0.26 0.31 0.34 0.36 0.37 0.40 0.46 0.63 0.87 0.94 0.92 0.73 0.56 0.52 0.57 0.43 0.40 0.42 0.45 0.54 0.53 0.48 0.48 0.50 0.54 0.54 0.54 0.53 0.55
0.16 0.15 0.15 0.14 0.17 0.29 0.39 0.42 0.30 0.19 0.22 0.30 0.37 0.39 0.40 0.42 0.50 0.76 0.95 1.02 0.86 0.56 0.48 0.56 0.52 0.48 0.47 0.44 0.46 0.50 0.48 0.46 0.46 0.48 0.49 0.50 0.50 0.54
0.14 0.12 0.14 0.16 0.23 0.34 0.37 0.40 0.33 0.23 0.26 0.29 0.30 0.31 0.29 0.32 0.41 0.59 1.02 1.42 1.20 0.83 0.50 0.61 0.63 0.67 0.79 0.50 0.43 0.46 0.46 0.45 0.44 0.45 0.47 0.48 0.50 0.51
0.14 0.11 0.11 0.21 0.29 0.32 0.29 0.25 0.31 0.38 0.33 0.29 0.30 0.31 0.32 0.34 0.38 0.49 0.80 1.44 1.69 1.23 0.70 1.01 1.09 0.83 0.95 0.68 0.49 0.47 0.49 0.53 0.55 0.52 0.50 0.49 0.48 0.52
0.15 0.11 0.13 0.22 0.23 0.19 0.16 0.20 0.33 0.34 0.25 0.33 0.39 0.39 0.39 0.42 0.47 0.54 0.64 0.82 1.10 1.19 0.87 1.12 1.40 1.03 1.06 0.81 0.51 0.49 0.54 0.66 0.73 0.69 0.62 0.56 0.51 0.52
0.15 0.18 0.20 0.18 0.14 0.11 0.14 0.19 0.19 0.17 0.28 0.47 0.54 0.54 0.56 0.61 0.66 0.69 0.65 0.65 0.69 0.71 0.73 0.78 0.99 0.98 1.08 0.99 0.70 0.60 0.70 0.75 0.86 0.90 0.79 0.62 0.52 0.49
0.18 0.18 0.16 0.13 0.11 0.12 0.15 0.14 0.11 0.18 0.40 0.58 0.63 0.61 0.63 0.68 0.74 0.82 0.90 0.85 0.83 0.70 0.62 0.58 0.65 0.87 0.96 0.75 0.82 0.79 0.85 1.07 1.17 1.18 0.94 0.71 0.59 0.52
0.23 0.15 0.12 0.11 0.10 0.11 0.14 0.14 0.15 0.22 0.34 0.44 0.58 0.63 0.62 0.67 0.76 0.86 0.96 0.95 0.89 0.71 0.57 0.47 0.43 0.49 0.62 0.68 0.71 0.68 0.81 0.99 1.16 1.19 0.96 0.85 0.75 0.64
0.22 0.16 0.15 0.15 0.16 0.19 0.21 0.21 0.21 0.28 0.41 0.57 0.66 0.74 0.83 0.89 0.94 0.94 0.93 0.89 0.78 0.60 0.47 0.37 0.35 0.37 0.34 0.32 0.52 0.73 0.80 0.94 1.07 1.00 0.75 0.78 0.86 0.76
0.20 0.19 0.22 0.24 0.26 0.27 0.29 0.32 0.35 0.39 0.58 0.76 0.86 0.92 1.01 1.05 1.03 0.95 0.81 0.68 0.52 0.37 0.26 0.21 0.31 0.61 0.63 0.36 0.27 0.56 0.93 1.01 0.88 0.79 0.66 0.67 0.86 0.81
0.20 0.26 0.31 0.34 0.34 0.35 0.38 0.47 0.54 0.59 0.71 0.85 0.93 1.02 1.14 1.19 1.05 0.83 0.65 0.51 0.40 0.26 0.14 0.08 0.17 0.55 0.97 0.87 0.63 0.55 0.70 0.96 1.05 0.94 0.68 0.58 0.67 0.65
0.20 0.27 0.32 0.35 0.38 0.41 0.46 0.56 0.70 0.83 0.90 1.02 1.07 1.15 1.20 1.14 0.89 0.61 0.42 0.27 0.26 0.24 0.19 0.10 0.09 0.25 0.57 0.76 0.62 0.43 0.54 0.70 0.92 1.17 1.01 0.83 0.65 0.49
0.18 0.24 0.27 0.32 0.39 0.48 0.56 0.68 0.84 0.92 1.00 1.08 1.15 1.16 1.05 0.90 0.69 0.43 0.32 0.30 0.26 0.24 0.20 0.11 0.06 0.13 0.35 0.64 0.56 0.39 0.41 0.42 0.40 0.43 0.69 1.04 1.41 1.37
0.19 0.24 0.28 0.34 0.43 0.55 0.67 0.75 0.86 0.96 1.08 1.17 1.14 0.99 0.80 0.60 0.40 0.34 0.32 0.32 0.32 0.26 0.21 0.16 0.10 0.12 0.22 0.36 0.46 0.41 0.33 0.30 0.25 0.30 0.50 0.59 0.79 1.03